Location: Zagreb
(45.8000°N, 16.0000°E)
Time: 08:52:12
(UTC+02:00)

Courier 1B - Pass Details

Date: 11 August 2020
Orbit: 962 x 1209 km, 28.3° (Epoch: 27 September)

Event Time Altitude Azimuth Distance (km) Brightness Sun altitude
Rises 21:55:54 0° 244° (WSW) 3,892 10.9 -16.3°
Reaches altitude 10° 21:59:49 10° 225° (SW) 2,882 10.0 -16.8°
Maximum altitude 22:03:56 17° 189° (S) 2,379 9.2 -17.3°
Enters shadow 22:05:03 16° 177° (S) 2,403 9.1 -17.4°
Drops below altitude 10° 22:07:56 10° 152° (SSE) 2,779 - -17.8°
Sets 22:11:37 0° 132° (SE) 3,689 - -18.2°
